Simultaneous Nadir Overpasses (SNOs) Predictions

Prediction of SNOs between LANDSAT-8 and NPP Satellite Orbit:

Table of predicted SNOs for the next 14.0 days since TLE Epoch: 12/19/2014
Index Date (LANDSAT-8) Time (LANDSAT-8) Lat,Lon (LANDSAT-8) SZA (LANDSAT-8 ) Date (NPP) Time (NPP) Lat,Lon (NPP) SZA (NPP ) Distance(km) Time Diff (sec)
1 12/21/2014 09:45:10 70.82, 31.17 94.16 12/21/2014 09:44:29 70.80, 31.16 94.15 2.11 41
2 12/21/2014 10:34:40 -70.71,-161.37 85.96 12/21/2014 10:35:11 -70.73,-161.39 85.94 2.06 31
3 12/24/2014 01:11:58 -71.65, -19.26 85.03 12/24/2014 01:10:51 -71.69, -21.91 84.95 92.55 67
4 12/24/2014 02:01:39 70.80, 147.01 94.12 12/24/2014 02:01:20 70.80, 146.95 94.13 2.06 19
5 12/24/2014 02:51:09 -70.68, -45.53 85.99 12/24/2014 02:52:01 -70.67, -45.52 86.01 2.06 52
6 12/26/2014 17:28:39 -70.89, 95.39 85.85 12/26/2014 17:27:26 -70.92, 95.22 85.82 6.99 73
7 12/26/2014 18:18:07 70.73, -97.21 93.99 12/26/2014 18:18:09 70.75, -97.20 94.01 1.75 2
8 12/26/2014 19:07:37 -70.62, 70.26 86.12 12/26/2014 19:08:50 -70.62, 70.34 86.13 2.94 73
9 12/29/2014 09:45:07 -70.85,-148.79 86.02 12/29/2014 09:44:15 -70.83,-148.86 86.04 3.39 52
10 12/29/2014 10:34:35 70.69, 18.61 93.82 12/29/2014 10:34:59 70.71, 18.64 93.85 2.85 24
11 12/29/2014 11:24:19 -69.81,-175.03 87.04 12/29/2014 11:25:25 -69.79,-172.61 87.10 92.74 66
12 01/01/2015 02:01:35 -70.77, -33.03 86.28 01/01/2015 02:01:05 -70.80, -33.03 86.24 3.30 30
13 01/01/2015 02:51:02 70.66, 134.45
